(153275) = 2001 DA10 = 2005 YH64

Discovered at Socorro on 2001-02-16 by LINEAR.

Orbit

Orbit type: Main Belt

Note: WebGL enabled browser required.

epoch2024-03-31.0
epoch JD2460400.5
perihelion date2019-08-20.31967
perihelion JD2458715.81967
argument of perihelion (°)160.91073
ascending node (°)100.69726
inclination (°)10.19992
eccentricity0.0520317
perihelion distance (AU)3.0059556
Tisserand w.r.t. Jupiter3.2
ΔV w.r.t. Earth (km/sec)11.2
semimajor axis (AU)3.1709453
mean anomaly (°)294.06154
mean daily motion (°/day)0.17455040
aphelion distance (AU)3.336
period (years)5.65
P-vector [x]-0.14086639
P-vector [y]-0.92981474
P-vector [z]-0.34000177
Q-vector [x]0.97461714
Q-vector [y]-0.06987929
Q-vector [z]-0.21269301
absolute magnitude15.11
phase slope0.15
uncertainty0
referenceMPEC 2024-F62
observations used687
oppositions18
arc length (days)8447
first opposition used2001
last opposition used2024
residual rms (arc-secs)0.72
perturbers coarse indicatorM-v
perturbers precise indicator003Ek
first observation date used2001-02-02.0
last observation date used2024-03-20.0
computer nameMPCLINUX
JD of orbit computation2456937.258604
perihelion JD uncertainty (days)2.8463E-04
argument of perihelion uncertainty (°)5.7643E-05
ascending node uncertainty (°)2.5861E-05
inclination uncertainty (°)4.8169E-06
eccentricity uncertainty 4.7774E-08
perihelion distance uncertainty (AU)1.4989E-07
Minimum Orbit Intersection Distances (in AU)
for orbit epoch: 2460400.5, reference: E2024-GH2
Mercury2.54378
Venus2.2811
Earth1.99184
Mars1.50244
Jupiter1.74729
Saturn5.7087
Uranus15.2658
Neptune26.5508

Observations

694 total observations over interval: 2001 02 02.53508 – 2024 03 20.237821
These data are available for download (format description).

Date (UT) J2000 RA J2000 Dec Magn Location Ref
2001 02 02.53508 11 16 01.74 +17 04 54.9 21.1   608 – Haleakala-AMOS MPS 26997
2001 02 02.54510 11 16 01.46 +17 04 59.1 21.1   608 – Haleakala-AMOS MPS 26997
2001 02 02.55500 11 16 01.17 +17 05 03.2 21.1   608 – Haleakala-AMOS MPS 26997
2001 02 16.30185 11 08 23.01 +18 38 41.1 19.0   704 – Lincoln Laboratory ETS, New Mexico MPS 26997
2001 02 16.31591 11 08 22.46 +18 38 46.7 19.5   704 – Lincoln Laboratory ETS, New Mexico MPS 26997
2001 02 16.35809 11 08 20.64 +18 39 04.1 19.8   704 – Lincoln Laboratory ETS, New Mexico MPS 26997
2001 02 19.30361 11 06 21.48 +18 58 59.3 18.9   704 – Lincoln Laboratory ETS, New Mexico MPS 26997
2001 02 19.31793 11 06 20.85 +18 59 05.3 19.1   704 – Lincoln Laboratory ETS, New Mexico MPS 26997
2001 02 19.33222 11 06 20.33 +18 59 11.3 19.3   704 – Lincoln Laboratory ETS, New Mexico MPS 26997
2001 02 19.34675 11 06 19.65 +18 59 16.7 18.8   704 – Lincoln Laboratory ETS, New Mexico MPS 26997
2002 05 14.32176 16 03 18.69 -10 11 23.4 20.4 V 291 – LPL/Spacewatch II MPS 157583
2002 05 14.32766 16 03 18.41 -10 11 23.2 20.2 V 291 – LPL/Spacewatch II MPS 157583
2002 05 14.33356 16 03 18.12 -10 11 22.8 20.3 V 291 – LPL/Spacewatch II MPS 157583
2002 06 02.21553 15 48 08.81 -10 10 16.2 19.6   644 – Palomar Mountain/NEAT MPS 157583
2002 06 02.23646 15 48 07.81 -10 10 16.8 19.9   644 – Palomar Mountain/NEAT MPS 157583
2002 06 02.25858 15 48 06.75 -10 10 17.8 19.8   644 – Palomar Mountain/NEAT MPS 157583
2002 06 09.24155 15 42 59.29 -10 17 27.2 19.2   704 – Lincoln Laboratory ETS, New Mexico MPS 157583
2002 06 09.26927 15 42 58.04 -10 17 31.0 19.1   704 – Lincoln Laboratory ETS, New Mexico MPS 157583
2002 06 09.28314 15 42 57.47 -10 17 31.9 19.0   704 – Lincoln Laboratory ETS, New Mexico MPS 157583
2003 07 08.42649 22 26 35.02 -18 41 14.4 19.5   644 – Palomar Mountain/NEAT MPS 202284
2003 07 08.44822 22 26 34.85 -18 41 21.5 19.4   644 – Palomar Mountain/NEAT MPS 202284
2003 07 08.46932 22 26 34.69 -18 41 28.2 19.1   644 – Palomar Mountain/NEAT MPS 202284
2005 10 01.46567 07 40 15.06 +20 39 40.7 21.6 V G96 – Mt. Lemmon Survey MPS 157583
2005 10 01.47126 07 40 15.45 +20 39 40.8 20.7 V G96 – Mt. Lemmon Survey MPS 157583
2005 10 01.47685 07 40 15.70 +20 39 40.3 21.1 V G96 – Mt. Lemmon Survey MPS 157583
2005 10 01.48245 07 40 15.99 +20 39 39.8 21.4 V G96 – Mt. Lemmon Survey MPS 157583
2005 10 28.42564 07 59 56.00 +20 32 17.4 20.9 V G96 – Mt. Lemmon Survey MPS 157583
2005 10 28.43176 07 59 56.25 +20 32 17.8 20.9 V G96 – Mt. Lemmon Survey MPS 157583
2005 10 28.43792 07 59 56.40 +20 32 17.7 21.5 V G96 – Mt. Lemmon Survey MPS 157583
2005 10 28.44432 07 59 56.61 +20 32 17.7 21.1 V G96 – Mt. Lemmon Survey MPS 157583
2005 12 24.34597 07 55 38.45 +22 58 34.3   691 – Steward Observatory, Kitt Peak-Spacewatch MPS 156738
2005 12 24.36623 07 55 37.58 +22 58 39.6   691 – Steward Observatory, Kitt Peak-Spacewatch MPS 156738
2005 12 24.38357 07 55 36.89 +22 58 44.3   691 – Steward Observatory, Kitt Peak-Spacewatch MPS 156738
2005 12 27.36791 07 53 31.63 +23 12 19.4 20.1 V 703 – Catalina Sky Survey MPS 156738
2005 12 27.37670 07 53 31.30 +23 12 20.5 19.3 V 703 – Catalina Sky Survey MPS 156738
2005 12 27.38546 07 53 30.94 +23 12 23.4 21.1 V 703 – Catalina Sky Survey MPS 156738
2005 12 27.39409 07 53 30.58 +23 12 25.4 20.1 V 703 – Catalina Sky Survey MPS 156738
2005 12 28.34896 07 52 48.75 +23 16 50.0 20.0 V G96 – Mt. Lemmon Survey MPS 156738
2005 12 28.35606 07 52 48.43 +23 16 51.9 20.0 V G96 – Mt. Lemmon Survey MPS 156738
2005 12 28.36046 07 52 48.25 +23 16 53.4 20.1 V 691 – Steward Observatory, Kitt Peak-Spacewatch MPS 156738
2005 12 28.36480 07 52 48.03 +23 16 54.3 20.1 V G96 – Mt. Lemmon Survey MPS 156738
2005 12 28.37108 07 52 47.74 +23 16 56.2 19.9 V G96 – Mt. Lemmon Survey MPS 156738
2005 12 28.37777 07 52 47.47 +23 16 58.6 20.0 V 691 – Steward Observatory, Kitt Peak-Spacewatch MPS 156738
2005 12 28.39510 07 52 46.67 +23 17 03.0 20.2 V 691 – Steward Observatory, Kitt Peak-Spacewatch MPS 156738
2006 01 05.28139 07 46 34.75 +23 53 35.9 19.3   704 – Lincoln Laboratory ETS, New Mexico MPS 157583
2006 01 05.29425 07 46 34.13 +23 53 40.7 19.6   704 – Lincoln Laboratory ETS, New Mexico MPS 157583
2006 01 05.30714 07 46 33.50 +23 53 44.2 19.7   704 – Lincoln Laboratory ETS, New Mexico MPS 157583
2006 01 05.33324 07 46 32.13 +23 53 51.2 20.0   704 – Lincoln Laboratory ETS, New Mexico MPS 157583
2006 01 26.25270 07 28 47.64 +25 22 27.3 19.8 V G96 – Mt. Lemmon Survey MPS 160236
2006 01 26.25955 07 28 47.28 +25 22 28.7 19.9 V G96 – Mt. Lemmon Survey MPS 160236
2006 01 26.26642 07 28 46.95 +25 22 30.2 20.0 V G96 – Mt. Lemmon Survey MPS 160236
2006 01 26.27330 07 28 46.59 +25 22 31.9 20.1 V G96 – Mt. Lemmon Survey MPS 160236
2006 01 31.11600 07 25 00.92 +25 39 20.4 20.1 V 691 – Steward Observatory, Kitt Peak-Spacewatch MPS 161624
2006 01 31.14017 07 24 59.81 +25 39 25.5 20.1 V 691 – Steward Observatory, Kitt Peak-Spacewatch MPS 161624
2006 01 31.16452 07 24 58.70 +25 39 30.3 20.1 V 691 – Steward Observatory, Kitt Peak-Spacewatch MPS 161624
2006 02 07.10913 07 20 10.92 +26 00 26.4   691 – Steward Observatory, Kitt Peak-Spacewatch MPS 162701
2006 02 07.13006 07 20 10.11 +26 00 29.8   691 – Steward Observatory, Kitt Peak-Spacewatch MPS 162701
2006 02 07.15100 07 20 09.29 +26 00 31.2   691 – Steward Observatory, Kitt Peak-Spacewatch MPS 162701
2007 03 12.33476 12 52 45.15 +10 04 50.8 19.6 V 703 – Catalina Sky Survey MPS 202883
2007 03 12.34317 12 52 44.86 +10 04 54.8 19.3 V 703 – Catalina Sky Survey MPS 202883
2007 03 12.35159 12 52 44.50 +10 04 56.6 19.5 V 703 – Catalina Sky Survey MPS 202883
2007 03 12.35999 12 52 44.22 +10 05 00.2 19.5 V 703 – Catalina Sky Survey MPS 202883
2007 03 14.21174 12 51 36.53 +10 16 22.2 18.9 R 699 – Lowell Observatory-LONEOS MPS 202883
2007 03 14.23551 12 51 35.72 +10 16 30.4   699 – Lowell Observatory-LONEOS MPS 202883
2007 03 14.25928 12 51 34.88 +10 16 41.4   699 – Lowell Observatory-LONEOS MPS 202883
2007 03 14.28305 12 51 33.97 +10 16 50.9   699 – Lowell Observatory-LONEOS MPS 202883
2007 03 20.37885 12 47 32.67 +10 53 08.6 19.7 V 703 – Catalina Sky Survey MPS 204480
2007 03 20.38721 12 47 32.35 +10 53 10.8 19.7 V 703 – Catalina Sky Survey MPS 204480
2007 03 20.39557 12 47 31.95 +10 53 14.2 20.1 V 703 – Catalina Sky Survey MPS 204480
2007 03 20.40389 12 47 31.52 +10 53 18.4 19.3 V 703 – Catalina Sky Survey MPS 204480
2007 03 20.45383 12 47 29.47 +10 53 34.0 19.2 V 703 – Catalina Sky Survey MPS 204480
2007 03 20.46188 12 47 29.18 +10 53 37.0 19.8 V 703 – Catalina Sky Survey MPS 204480
2007 03 20.46979 12 47 28.89 +10 53 39.6 19.1 V 703 – Catalina Sky Survey MPS 204480
2007 03 20.47768 12 47 28.53 +10 53 42.8 19.5 V 703 – Catalina Sky Survey MPS 204480
2007 04 15.26637 12 28 59.70 +12 42 29.8 20.2 V 703 – Catalina Sky Survey MPS 207926
2007 04 15.27298 12 28 59.34 +12 42 31.8 19.5 V 703 – Catalina Sky Survey MPS 207926
2007 04 15.27957 12 28 59.12 +12 42 31.3 19.8 V 703 – Catalina Sky Survey MPS 207926
2007 04 15.28621 12 28 58.80 +12 42 32.3 20.1 V 703 – Catalina Sky Survey MPS 207926
2007 04 19.15819 12 26 30.86 +12 49 50.7 19.2 R 699 – Lowell Observatory-LONEOS MPS 208761
2007 04 19.18012 12 26 30.00 +12 49 52.9   699 – Lowell Observatory-LONEOS MPS 208761
2007 04 19.20204 12 26 29.18 +12 49 55.1   699 – Lowell Observatory-LONEOS MPS 208761
2009 09 16.29319 00 03 30.13 -15 14 39.2 19.5 V 703 – Catalina Sky Survey MPS 295616
2009 09 16.29982 00 03 29.91 -15 14 41.1 19.0 V 703 – Catalina Sky Survey MPS 295616
2009 09 16.30649 00 03 29.48 -15 14 43.5 19.3 V 703 – Catalina Sky Survey MPS 295616
2009 09 16.31312 00 03 29.30 -15 14 45.3 19.6 V 703 – Catalina Sky Survey MPS 295616
2009 09 16.36485 00 03 26.96 -15 15 01.4 19.3 V 703 – Catalina Sky Survey MPS 295616
2009 09 16.37362 00 03 26.60 -15 15 04.2 19.5 V 703 – Catalina Sky Survey MPS 295616
2009 09 16.38244 00 03 26.17 -15 15 08.2 19.4 V 703 – Catalina Sky Survey MPS 295616
2009 09 16.39124 00 03 25.77 -15 15 10.4 19.7 V 703 – Catalina Sky Survey MPS 295616
2009 10 20.16105 23 41 38.40 -16 52 59.4 20.1 V 291 – LPL/Spacewatch II MPS 300384
2009 10 20.16775 23 41 38.20 -16 52 59.3 20.1 V 291 – LPL/Spacewatch II MPS 300384
